Simultaneous Nadir Overpasses (SNOs) Predictions

Prediction of SNOs between NPP and PACE Satellite Orbit:

Table of predicted SNOs for the next 14.0 days since TLE Epoch: 8/31/2024
Index Date (NPP) Time (NPP) Lat,Lon (NPP) SZA (NPP ) Date (PACE) Time (PACE) Lat,Lon (PACE) SZA (PACE ) Distance(km) Time Diff (sec)
1 09/01/2024 14:32:16 80.00, -76.79 74.26 09/01/2024 14:33:18 80.00, -76.85 74.24 1.19 62
2 09/01/2024 15:22:54 -79.79, 92.51 106.11 09/01/2024 15:22:21 -79.79, 92.45 106.09 1.22 33
3 09/03/2024 18:58:38 79.94,-142.84 74.93 09/03/2024 18:58:51 79.94,-142.74 74.91 1.98 13
4 09/05/2024 22:34:18 -79.98, -17.14 104.23 09/05/2024 22:35:17 -79.99, -17.27 104.23 2.69 59
5 09/05/2024 23:24:57 79.80, 151.89 75.47 09/05/2024 23:24:21 79.80, 151.88 75.48 0.21 36
6 09/08/2024 03:00:37 -79.85, -82.47 103.67 09/08/2024 03:00:46 -79.86, -82.63 103.66 3.22 9
7 09/10/2024 06:36:19 79.97, 42.45 77.34 09/10/2024 06:37:12 79.98, 42.33 77.34 2.59 53
8 09/10/2024 07:26:57 -79.76,-148.18 103.04 09/10/2024 07:26:15 -79.76,-148.30 103.01 2.42 42



Historial Predications of SNOs between NPP and PACE
